Notices

What's New in latest Release from April 7th, 2021:

- Updated Glossary, including Speed of Maximum Gust, and Total Hourly Precipitation

- Updated national and regional climate services offices contacts and prices information

- Addition of station inventory lists for 1981-2010, 1971-2000, and 1961-1990 Normals.

If you haven't already, please take our survey and provide feedback about our website: https://eccc.sondage-survey.ca/f/LanguageSelection.aspx?s=442ca660-fcf1-47c0-95a9-59707d6fd709

Hourly Data Report for April 23, 2019

MIRAMICHI RCS
NEW BRUNSWICK
Current Station Operator: ECCC - MSC

47°00'34.000" N
65°27'54.000" W
33.00 m
8100989
71744
ACQ

Download Data

Hourly Data (April 2019)
Hourly Data Report for April 23, 2019
TIME
LST
Temp Definition
°C
Dew Point Definition
°C
Rel Hum Definition
%
Precip. Amount Definition
mm

Wind Dir Definition
10's deg

Wind Spd Definition
km/h
Visibility Definition
km
Stn Press Definition
kPa
Hmdx Definition


Wind Chill Definition


Weather Definition


00:00 1.3 -0.7 87 0.0 1 4   102.16     LegendNANA
01:00 1.7 -0.9 83 0.0 5 5   102.06     LegendNANA
02:00 1.9 -1.0 81 0.0 3 6   102.08     LegendNANA
03:00 2.1 -1.3 78 0.0 5 7   102.06     LegendNANA
04:00 1.9 -1.4 79 0.0 4 8   102.03     LegendNANA
05:00 2.1 -1.2 79 0.0 4 6   102.02     LegendNANA
06:00 2.1 -0.5 83 0.0 5 13   102.02     LegendNANA
07:00 2.4 -0.4 81 0.0 6 22   101.96     LegendNANA
08:00 2.2 0.1 86 0.0 5 18   101.99     LegendNANA
09:00 2.6 0.3 85 0.0 5 20   101.88     LegendNANA
10:00 2.7 0.6 86 0.3 6 21   101.92     LegendNANA
11:00 2.6 0.9 89 1.3 6 21   101.86     LegendNANA
12:00 2.3 0.2 86 0.2 6 23   101.80     LegendNANA
13:00 2.4 0.5 87 0.7 6 23   101.70     LegendNANA
14:00 1.6 0.0 89 0.5 6 26   101.64     LegendNANA
15:00 1.3 -0.1 90 0.5 6 28   101.56     LegendNANA
16:00 1.1 -0.5 89 0.3 6 23   101.47     LegendNANA
17:00 1.0 -0.2 92 0.7 5 21   101.36     LegendNANA
18:00 0.9 0.0 94 0.9 5 18   101.30     LegendNANA
19:00 1.0 0.2 95 0.5 5 19   101.14     LegendNANA
20:00 1.0 0.2 94 0.2 4 15   101.05     LegendNANA
21:00 1.5 0.8 95 0.2 4 15   100.94     LegendNANA
22:00 1.7 0.9 94 0.5 5 21   100.80     LegendNANA
23:00 1.7 0.8 94 0.0 3 17   100.73     LegendNANA

Notes on Data Quality.

Legend

  • E = Estimated
  • M = Missing
  • NA = Not Available*
  • [empty] = Indicates an unobserved value
Date modified: